When you browse on this site, cookies collect data to enhance your experience and personalize the content and advertising you see.
Visit our Privacy Policy to learn more. By continuing to use the site, you agree to this use of cookies and data.
  • In Hungary
  • List of Countries
  • For 7 days
  • Water Temperature
  • Satellite Maps
  • Weather Map
  • News
  • Weather Widgets
  • user-avatar
    Login

    Hourly Weather Jeddah

    Today, 16 December, Sunday

    Time Temperature Precipitation Wind Pressure Humidity
    00:00 +29°C° 0 mm 1 mps 760 mmHg 68%
    01:00 +29°C° 0 mm 1 mps 759 mmHg 70%
    02:00 +28°C° 0 mm 1 mps 759 mmHg 71%
    03:00 +28°C° 0 mm 1 mps 759 mmHg 71%
    04:00 +28°C° 0 mm 1 mps 759 mmHg 72%
    05:00 +28°C° 0 mm 1 mps 759 mmHg 73%
    06:00 +27°C° 0 mm 1 mps 759 mmHg 74%
    07:00 +28°C° 0 mm 1 mps 759 mmHg 71%
    08:00 +27°C° 0 mm 0 mps 760 mmHg 67%
    09:00 +30°C° 0 mm 1 mps 760 mmHg 63%
    10:00 +31°C° 0 mm 1 mps 760 mmHg 58%
    11:00 +32°C° 0 mm 2 mps 760 mmHg 53%
    12:00 +34°C° 0 mm 3 mps 760 mmHg 48%
    13:00 +34°C° 0 mm 3 mps 759 mmHg 47%
    14:00 +34°C° 0 mm 4 mps 759 mmHg 45%
    15:00 +35°C° 0 mm 5 mps 758 mmHg 44%
    16:00 +34°C° 0 mm 5 mps 759 mmHg 48%
    17:00 +33°C° 0 mm 4 mps 759 mmHg 53%
    18:00 +32°C° 0 mm 4 mps 759 mmHg 57%
    19:00 +31°C° 0 mm 3 mps 759 mmHg 59%
    20:00 +30°C° 0 mm 2 mps 760 mmHg 61%
    21:00 +30°C° 0 mm 2 mps 760 mmHg 63%
    22:00 +30°C° 0 mm 1 mps 760 mmHg 64%
    23:00 +30°C° 0 mm 1 mps 760 mmHg 65%

    Tomorrow, 17 December, Monday

    Time Temperature Precipitation Wind Pressure Humidity
    00:00 +27°C° 0 mm 0 mps 760 mmHg 66%
    01:00 +29°C° 0 mm 1 mps 760 mmHg 67%
    02:00 +29°C° 0 mm 1 mps 760 mmHg 68%
    03:00 +29°C° 0 mm 1 mps 759 mmHg 69%
    04:00 +28°C° 0 mm 1 mps 759 mmHg 70%
    05:00 +28°C° 0 mm 1 mps 759 mmHg 71%
    06:00 +28°C° 0 mm 1 mps 759 mmHg 72%
    07:00 +28°C° 0 mm 1 mps 759 mmHg 69%
    08:00 +29°C° 0 mm 1 mps 760 mmHg 66%
    09:00 +29°C° 0 mm 1 mps 760 mmHg 64%
    10:00 +30°C° 0.1 mm 1 mps 760 mmHg 60%
    11:00 +31°C° 0.1 mm 2 mps 760 mmHg 55%
    12:00 +32°C° 0.1 mm 2 mps 760 mmHg 51%
    13:00 +33°C° 0.3 mm 3 mps 759 mmHg 50%
    14:00 +33°C° 0.3 mm 4 mps 759 mmHg 48%
    15:00 +34°C° 0.3 mm 4 mps 759 mmHg 47%
    16:00 +33°C° 0 mm 5 mps 759 mmHg 50%
    17:00 +32°C° 0 mm 5 mps 759 mmHg 52%
    18:00 +30°C° 0 mm 5 mps 759 mmHg 55%
    19:00 +30°C° 0.4 mm 6 mps 760 mmHg 58%
    20:00 +29°C° 0.4 mm 6 mps 760 mmHg 60%
    21:00 +29°C° 0.4 mm 6 mps 760 mmHg 63%
    22:00 +29°C° 0.1 mm 6 mps 760 mmHg 63%
    23:00 +29°C° 0.1 mm 6 mps 760 mmHg 63%

    Day after tomorrow, 18 December, Tuesday

    Time Temperature Precipitation Wind Pressure Humidity
    00:00 +28°C° 0.1 mm 5 mps 760 mmHg 63%
    01:00 +28°C° 0 mm 5 mps 760 mmHg 63%
    02:00 +28°C° 0 mm 5 mps 760 mmHg 63%
    03:00 +28°C° 0 mm 5 mps 760 mmHg 63%
    04:00 +27°C° 0 mm 6 mps 760 mmHg 62%
    05:00 +27°C° 0 mm 6 mps 760 mmHg 62%
    06:00 +27°C° 0 mm 6 mps 760 mmHg 62%
    07:00 +27°C° 0 mm 6 mps 760 mmHg 58%
    08:00 +28°C° 0 mm 6 mps 761 mmHg 55%
    09:00 +28°C° 0 mm 6 mps 761 mmHg 52%
    10:00 +30°C° 0 mm 6 mps 761 mmHg 48%
    11:00 +32°C° 0 mm 6 mps 760 mmHg 44%
    12:00 +33°C° 0 mm 6 mps 760 mmHg 40%
    13:00 +33°C° 0 mm 7 mps 760 mmHg 40%
    14:00 +34°C° 0 mm 7 mps 759 mmHg 39%
    15:00 +34°C° 0 mm 7 mps 758 mmHg 38%
    16:00 +33°C° 0 mm 7 mps 758 mmHg 42%
    17:00 +32°C° 0 mm 7 mps 758 mmHg 46%
    18:00 +30°C° 0 mm 7 mps 758 mmHg 50%
    19:00 +30°C° 0 mm 6 mps 759 mmHg 52%
    20:00 +29°C° 0 mm 6 mps 759 mmHg 53%
    21:00 +29°C° 0 mm 6 mps 759 mmHg 55%
    22:00 +28°C° 0 mm 6 mps 759 mmHg 56%
    23:00 +28°C° 0 mm 6 mps 759 mmHg 57%

    19 December, Wednesday

    Time Temperature Precipitation Wind Pressure Humidity
    00:00 +28°C° 0 mm 5 mps 759 mmHg 58%
    01:00 +27°C° 0 mm 5 mps 759 mmHg 59%
    02:00 +27°C° 0 mm 5 mps 759 mmHg 60%
    03:00 +27°C° 0 mm 5 mps 759 mmHg 61%
    04:00 +27°C° 0 mm 5 mps 759 mmHg 62%
    05:00 +26°C° 0 mm 5 mps 759 mmHg 62%
    06:00 +26°C° 0 mm 5 mps 759 mmHg 63%
    07:00 +27°C° 0 mm 5 mps 759 mmHg 59%
    08:00 +28°C° 0 mm 4 mps 760 mmHg 55%
    09:00 +28°C° 0 mm 4 mps 760 mmHg 51%
    10:00 +29°C° 0 mm 4 mps 760 mmHg 46%
    11:00 +32°C° 0 mm 4 mps 760 mmHg 42%
    12:00 +33°C° 0 mm 4 mps 759 mmHg 37%
    13:00 +33°C° 0 mm 5 mps 759 mmHg 38%
    14:00 +33°C° 0 mm 5 mps 758 mmHg 39%
    15:00 +34°C° 0 mm 6 mps 758 mmHg 40%
    16:00 +33°C° 0 mm 6 mps 758 mmHg 45%
    17:00 +32°C° 0 mm 6 mps 758 mmHg 51%
    18:00 +30°C° 0 mm 6 mps 759 mmHg 56%
    19:00 +29°C° 0 mm 6 mps 759 mmHg 58%
    20:00 +29°C° 0 mm 5 mps 759 mmHg 60%
    21:00 +29°C° 0 mm 5 mps 760 mmHg 61%
    22:00 +28°C° 0 mm 5 mps 760 mmHg 62%
    23:00 +28°C° 0 mm 5 mps 760 mmHg 63%

    20 December, Thursday

    Time Temperature Precipitation Wind Pressure Humidity
    00:00 +28°C° 0 mm 5 mps 760 mmHg 64%
    01:00 +28°C° 0 mm 5 mps 760 mmHg 64%
    02:00 +27°C° 0 mm 5 mps 759 mmHg 65%
    03:00 +27°C° 0 mm 4 mps 759 mmHg 65%
    04:00 +27°C° 0 mm 5 mps 759 mmHg 66%
    05:00 +27°C° 0 mm 5 mps 759 mmHg 66%
    06:00 +27°C° 0 mm 5 mps 759 mmHg 67%
    07:00 +27°C° 0 mm 5 mps 760 mmHg 64%
    08:00 +28°C° 0 mm 5 mps 760 mmHg 61%
    09:00 +28°C° 0 mm 5 mps 760 mmHg 59%
    10:00 +29°C° 0 mm 6 mps 760 mmHg 54%
    11:00 +30°C° 0 mm 6 mps 760 mmHg 50%
    12:00 +32°C° 0 mm 6 mps 760 mmHg 46%
    13:00 +32°C° 0 mm 7 mps 759 mmHg 46%
    14:00 +33°C° 0 mm 7 mps 759 mmHg 45%
    15:00 +33°C° 0 mm 8 mps 758 mmHg 45%
    16:00 +32°C° 0 mm 8 mps 758 mmHg 48%
    17:00 +31°C° 0 mm 8 mps 759 mmHg 51%
    18:00 +29°C° 0 mm 8 mps 759 mmHg 54%
    19:00 +29°C° 0 mm 7 mps 759 mmHg 55%
    20:00 +28°C° 0 mm 7 mps 760 mmHg 57%
    21:00 +28°C° 0 mm 7 mps 760 mmHg 58%
    22:00 +28°C° 0 mm 7 mps 760 mmHg 59%
    23:00 +27°C° 0 mm 6 mps 760 mmHg 59%

    21 December, Friday

    Time Temperature Precipitation Wind Pressure Humidity
    00:00 +27°C° 0 mm 6 mps 760 mmHg 60%
    01:00 +27°C° 0 mm 6 mps 759 mmHg 61%
    02:00 +27°C° 0 mm 6 mps 759 mmHg 63%
    03:00 +26°C° 0 mm 6 mps 759 mmHg 64%
    04:00 +26°C° 0 mm 6 mps 759 mmHg 65%
    05:00 +26°C° 0 mm 6 mps 759 mmHg 65%
    06:00 +26°C° 0 mm 6 mps 759 mmHg 66%
    07:00 +26°C° 0 mm 5 mps 759 mmHg 62%
    08:00 +27°C° 0 mm 5 mps 760 mmHg 59%
    09:00 +28°C° 0 mm 5 mps 760 mmHg 55%
    10:00 +29°C° 0 mm 5 mps 760 mmHg 51%
    11:00 +30°C° 0 mm 5 mps 760 mmHg 46%
    12:00 +32°C° 0 mm 5 mps 759 mmHg 42%
    13:00 +33°C° 0 mm 6 mps 759 mmHg 41%
    14:00 +33°C° 0 mm 6 mps 758 mmHg 40%
    15:00 +34°C° 0 mm 6 mps 758 mmHg 38%
    16:00 +33°C° 0 mm 6 mps 758 mmHg 42%
    17:00 +32°C° 0 mm 6 mps 758 mmHg 45%
    18:00 +30°C° 0 mm 6 mps 758 mmHg 49%
    19:00 +30°C° 0 mm 6 mps 758 mmHg 50%
    20:00 +29°C° 0 mm 6 mps 759 mmHg 52%
    21:00 +29°C° 0 mm 5 mps 759 mmHg 53%
    22:00 +28°C° 0 mm 5 mps 759 mmHg 54%
    23:00 +28°C° 0 mm 5 mps 758 mmHg 54%
    Show more